Weather reports worldwide

Advertisment
Jersey Airport, United Kingdom (3895): temperature & dewpoint: 17.08.2019 13:00:00 - 23.08.2019 13:00:00 (BST)Jersey Airport, United Kingdom (3895): temperature -20cm & temperature -100cm: 17.08.2019 13:00:00 - 23.08.2019 13:00:00 (BST)Jersey Airport, United Kingdom (3895): wind speed & gusts: 17.08.2019 13:00:00 - 23.08.2019 13:00:00 (BST)Jersey Airport, United Kingdom (3895): wind direction: 17.08.2019 13:00:00 - 23.08.2019 13:00:00 (BST)Jersey Airport, United Kingdom (3895): reduced air pressure: 17.08.2019 13:00:00 - 23.08.2019 13:00:00 (BST)Jersey Airport, United Kingdom (3895): visibility: 17.08.2019 13:00:00 - 23.08.2019 13:00:00 (BST)Jersey Airport, United Kingdom (3895): sunshine duration: 17.08.2019 13:00:00 - 23.08.2019 13:00:00 (BST)Jersey Airport, United Kingdom (3895): precipitation: 17.08.2019 13:00:00 - 23.08.2019 13:00:00 (BST)
Date & Time tt [°C] td [°C] tt -20cm [°C] tt -100cm [°C] ff [km/h] ff [kn] fx [km/h] fx [kn] dd ppp [hPa] vv [km] sd [min] rr [mm]
23.08.2019 13:00:00 24,0 13,0 - - 16 9 - - ESE - 10 - -
23.08.2019 12:00:00 22,7 11,1 - - 11 6 - - ESE 1023,4 40 60 0,0
23.08.2019 11:00:00 21,9 11,7 - - 11 6 - - SE 1023,9 10 60 0,0
23.08.2019 10:00:00 20,4 13,7 19,2 17,4 13 7 - - E 1024,2 10 60 0,0
23.08.2019 09:00:00 18,3 13,7 - - 16 9 - - E 1024,2 10 60 0,0
23.08.2019 08:00:00 16,8 14,1 - - 15 8 - - E 1024,4 10 48 0,0
23.08.2019 07:00:00 13,6 12,8 - - 16 9 - - E 1024,7 18 0 0,0
23.08.2019 06:00:00 13,6 12,0 - - 16 9 - - E 1024,5 10 0 0,0
23.08.2019 05:00:00 13,0 12,0 - - 16 9 - - E 1024,9 10 0 0,0
23.08.2019 04:00:00 13,7 13,1 - - 18 10 - - E 1025,1 15 0 0,0
23.08.2019 03:00:00 12,1 11,2 - - 15 8 - - ESE 1025,5 6 0 0,0
23.08.2019 02:00:00 12,8 11,5 - - 16 9 - - ESE 1026,0 10 0 0,0
23.08.2019 01:00:00 12,7 11,1 - - 15 8 - - E 1026,2 10 - 0,0
23.08.2019 00:00:00 13,8 12,1 - - 13 7 - - E 1026,3 17 0 0,0
22.08.2019 23:00:00 15,5 11,8 - - 13 7 - - ENE 1026,3 10 0 0,0
22.08.2019 22:00:00 15,8 12,3 - - 15 8 - - NE 1026,3 10 0 0,0
22.08.2019 21:00:00 15,8 13,3 - - 15 8 - - NE 1026,1 10 0 0,0
22.08.2019 20:00:00 16,3 12,9 - - 13 7 - - NNE 1025,8 21 36 0,0
22.08.2019 19:00:00 17,9 13,5 - - 15 8 - - NNE 1025,6 10 60 0,0
22.08.2019 18:00:00 19,5 12,8 - - 11 6 - - N 1025,6 10 60 0,0
22.08.2019 17:00:00 19,4 13,5 - - 15 8 - - N 1025,9 10 60 0,0
22.08.2019 16:00:00 20,5 13,9 - - 11 6 - - NNE 1026,0 10 60 0,0
22.08.2019 15:00:00 20,6 13,7 - - 13 7 - - N 1026,2 20 60 0,0
22.08.2019 14:00:00 20,5 13,6 - - 8 4 - - N 1026,4 10 24 0,0
22.08.2019 13:00:00 19,7 14,0 - - 8 4 - - - 1026,6 10 24 0,0
22.08.2019 12:00:00 20,3 14,1 - - 9 5 - - NNW 1026,7 35 60 0,0
22.08.2019 11:00:00 20,9 10,3 - - 9 5 - - E 1026,8 10 60 0,0
22.08.2019 10:00:00 20,0 12,5 19,0 17,4 5 3 - - E 1026,5 10 60 0,0
22.08.2019 09:00:00 18,5 13,2 - - 5 3 - - N 1026,6 10 60 0,0
22.08.2019 08:00:00 16,0 14,3 - - 4 2 - - NNW 1026,4 10 60 0,0
22.08.2019 07:00:00 14,8 13,2 - - 5 3 - - SE 1026,1 10 6 0,0
22.08.2019 06:00:00 14,4 13,1 - - 5 3 - - SSE 1025,9 10 0 0,0
22.08.2019 05:00:00 13,4 12,1 - - 9 5 - - SE 1025,7 10 0 0,0
22.08.2019 04:00:00 13,8 12,7 - - 9 5 - - ESE 1025,7 10 0 0,0
22.08.2019 03:00:00 13,5 12,6 - - 9 5 - - ESE 1025,8 19 0 0,0
22.08.2019 02:00:00 13,4 12,4 - - 9 5 - - ESE 1026,2 10 0 0,0
22.08.2019 01:00:00 13,6 12,7 - - 11 6 - - ESE 1026,5 10 - 0,0
22.08.2019 00:00:00 13,5 12,2 - - 13 7 - - E 1026,6 10 0 0,0
21.08.2019 23:00:00 13,5 11,4 - - 13 7 - - E 1026,6 10 0 0,0
21.08.2019 22:00:00 15,2 11,1 - - 11 6 - - ENE 1026,5 10 0 0,0
21.08.2019 21:00:00 15,4 11,2 - - 15 8 - - NE 1026,4 23 0 0,0
21.08.2019 20:00:00 16,2 11,3 - - 9 5 - - NE 1026,0 10 36 0,0
21.08.2019 19:00:00 17,9 11,5 - - 11 6 - - NNE 1025,9 10 60 0,0
21.08.2019 18:00:00 18,7 11,0 - - 9 5 - - NNE 1026,0 18 60 0,0
21.08.2019 17:00:00 19,7 8,5 - - 9 5 - - N 1026,6 35 60 0,0
21.08.2019 16:00:00 19,4 11,8 - - 11 6 - - - 1026,7 10 60 0,0
21.08.2019 15:00:00 19,6 12,2 - - 9 5 - - - 1026,9 10 60 0,0
21.08.2019 14:00:00 19,3 10,9 - - 11 6 - - W 1027,2 10 60 0,0
21.08.2019 13:00:00 19,5 9,4 - - 8 4 - - SW 1027,3 30 60 0,0
21.08.2019 12:00:00 18,7 7,1 - - 8 4 - - S 1027,7 35 60 0,0
21.08.2019 11:00:00 17,7 10,5 - - 13 7 - - SSE 1028,0 10 60 0,0
21.08.2019 10:00:00 16,6 12,8 18,7 17,4 15 8 - - SE 1028,1 10 30 0,0
21.08.2019 09:00:00 15,5 13,4 - - 9 5 - - ESE 1028,2 10 0 0,0
21.08.2019 08:00:00 14,3 13,3 - - 8 4 - - ESE 1028,3 10 0 0,0
21.08.2019 07:00:00 11,6 9,5 - - 5 3 - - ENE 1028,1 10 0 0,0
21.08.2019 06:00:00 11,7 9,5 - - 4 2 - - ENE 1028,0 10 0 0,0
21.08.2019 05:00:00 12,8 11,7 - - 2 1 - - ENE 1028,0 10 0 0,0
21.08.2019 04:00:00 13,0 11,7 - - 2 1 - - E 1028,0 10 0 0,0
21.08.2019 03:00:00 12,0 10,8 - - 2 1 - - - 1028,1 10 0 0,0
21.08.2019 02:00:00 12,4 10,8 - - 8 4 - - NNW 1028,0 10 0 0,0
21.08.2019 01:00:00 12,5 10,9 - - 8 4 - - NW 1028,4 10 - 0,0
21.08.2019 00:00:00 12,2 10,4 - - 8 4 - - NW 1028,4 10 0 0,0
20.08.2019 23:00:00 12,8 10,6 - - 8 4 - - NW 1028,5 10 0 0,0
20.08.2019 22:00:00 13,0 10,7 - - 8 4 - - NW 1028,5 10 0 0,0
20.08.2019 21:00:00 13,6 10,9 - - 8 4 - - NW 1028,1 10 0 0,0
20.08.2019 20:00:00 15,0 10,6 - - 9 5 - - NNW 1027,6 21 54 0,0
20.08.2019 19:00:00 16,3 10,4 - - 15 8 - - WNW 1027,4 10 60 0,0
20.08.2019 18:00:00 17,2 11,3 - - 16 9 - - WNW 1027,0 10 60 0,0
20.08.2019 17:00:00 17,3 10,9 - - 18 10 - - W 1026,8 10 60 0,0
20.08.2019 16:00:00 17,8 11,2 - - 18 10 - - WNW 1026,8 17 60 0,0
20.08.2019 15:00:00 17,8 11,2 - - 21 11 - - W 1026,7 10 60 0,0
20.08.2019 14:00:00 17,8 11,0 - - 18 10 - - WNW 1026,3 14 60 0,0
20.08.2019 13:00:00 18,3 12,4 - - 21 11 - - W 1026,1 10 60 0,0
20.08.2019 12:00:00 17,6 11,7 - - 21 11 - - W 1025,9 10 60 0,0
20.08.2019 11:00:00 17,3 11,4 - - 16 9 - - W 1025,6 10 60 0,0
20.08.2019 10:00:00 17,1 11,8 19,0 17,4 18 10 - - WNW 1025,0 10 54 0,0
20.08.2019 09:00:00 16,4 11,5 - - 15 8 - - WNW 1024,6 10 60 0,0
20.08.2019 08:00:00 15,6 11,3 - - 15 8 - - W 1024,2 10 54 0,0
20.08.2019 07:00:00 14,2 11,3 - - 9 5 - - WNW 1023,6 10 0 0,0
20.08.2019 06:00:00 13,5 10,7 - - 13 7 - - NW 1022,9 23 0 0,0
20.08.2019 05:00:00 14,5 11,4 - - 13 7 - - WNW 1022,3 10 0 0,0
20.08.2019 04:00:00 14,1 10,6 - - 13 7 - - WNW 1022,3 10 0 0,0
20.08.2019 03:00:00 14,7 11,2 - - 13 7 - - WNW 1022,0 10 0 0,0
20.08.2019 02:00:00 15,2 12,1 - - 15 8 - - WNW 1022,3 10 0 0,0
20.08.2019 01:00:00 15,4 12,3 - - 18 10 - - W 1022,3 10 - 0,0
20.08.2019 00:00:00 15,2 12,6 - - 18 10 - - W 1022,2 16 0 0,0
19.08.2019 23:00:00 15,3 12,5 - - 22 12 - - WNW 1021,9 17 0 0,0
19.08.2019 22:00:00 15,3 12,5 - - 18 10 - - W 1021,7 10 0 0,0
19.08.2019 21:00:00 15,3 12,7 - - 21 11 - - W 1021,3 15 0 0,0
19.08.2019 20:00:00 16,0 12,2 - - 22 12 - - W 1020,6 20 54 0,0
19.08.2019 19:00:00 17,1 12,2 - - 24 13 - - W 1020,3 10 54 0,0
19.08.2019 18:00:00 17,3 12,6 - - 22 12 - - W 1020,2 20 60 0,0
19.08.2019 17:00:00 17,8 12,4 - - 28 15 - - W 1020,1 10 60 0,0
19.08.2019 16:00:00 18,0 12,0 - - 28 15 - - W 1019,8 10 54 0,0
19.08.2019 15:00:00 18,3 12,6 - - 29 16 - - W 1019,6 10 60 0,0
19.08.2019 14:00:00 19,0 13,0 - - 29 16 - - W 1019,4 10 60 0,0
19.08.2019 13:00:00 18,1 12,1 - - 34 18 - - WSW 1019,2 10 60 0,0
19.08.2019 12:00:00 17,3 13,5 - - 31 17 - - WSW 1018,9 10 48 0,0
19.08.2019 11:00:00 17,6 13,8 - - 31 17 - - W 1018,2 10 42 0,0
19.08.2019 10:00:00 17,0 13,3 19,2 17,4 34 18 - - W 1017,7 10 36 0,0
19.08.2019 09:00:00 16,0 12,7 - - 31 17 - - W 1017,1 10 36 0,0
19.08.2019 08:00:00 15,4 12,8 - - 28 15 - - W 1016,7 12 18 0,8
19.08.2019 07:00:00 13,8 12,5 - - 16 9 - - WNW 1016,4 10 0 1,6
19.08.2019 06:00:00 15,3 12,8 - - 28 15 - - W 1015,6 10 0 0,0
19.08.2019 05:00:00 15,2 12,3 - - 24 13 - - W 1015,4 14 0 0,0
19.08.2019 04:00:00 15,2 12,6 - - 31 17 - - W 1015,0 10 0 0,6
19.08.2019 03:00:00 15,7 12,7 - - 34 18 46 25 WSW 1014,9 10 0 0,0
19.08.2019 02:00:00 15,8 12,9 - - 34 18 46 25 W 1014,9 10 0 0,0
19.08.2019 01:00:00 15,8 12,8 - - 34 18 48 26 W 1014,7 10 - 0,0
19.08.2019 00:00:00 15,9 12,8 - - 35 19 48 26 W 1014,3 10 0 0,0
18.08.2019 23:00:00 15,9 13,1 - - 29 16 46 25 W 1014,0 10 0 0,0
18.08.2019 22:00:00 15,9 12,4 - - 34 18 48 26 W 1013,8 10 0 0,0
18.08.2019 21:00:00 16,0 12,4 - - 31 17 46 25 W 1013,2 10 0 0,0
18.08.2019 20:00:00 16,2 12,8 - - 31 17 48 26 W 1012,5 11 42 0,0
18.08.2019 19:00:00 17,0 13,2 - - 35 19 48 26 W 1012,1 10 60 0,0
18.08.2019 18:00:00 17,6 12,9 - - 31 17 50 27 W 1012,0 18 60 0,0
18.08.2019 17:00:00 18,2 12,4 - - 37 20 50 27 W 1011,6 16 60 0,0
18.08.2019 16:00:00 18,4 12,1 - - 35 19 52 28 W 1011,4 10 60 0,0
18.08.2019 15:00:00 18,3 12,0 - - 37 20 48 26 W 1011,0 10 60 0,0
18.08.2019 14:00:00 18,2 12,3 - - 31 17 48 26 W 1010,6 18 60 0,0
18.08.2019 13:00:00 17,9 12,5 - - 34 18 48 26 W 1010,0 17 60 0,0
18.08.2019 12:00:00 17,8 13,4 - - 35 19 48 26 W 1009,5 16 60 0,0
18.08.2019 11:00:00 17,4 12,6 - - 31 17 - - W 1008,7 10 42 0,0
18.08.2019 10:00:00 17,2 13,6 19,0 17,4 28 15 - - W 1007,9 10 54 0,0
18.08.2019 09:00:00 16,2 13,8 - - 29 16 - - WNW 1007,1 10 24 0,0
18.08.2019 08:00:00 15,5 14,5 - - 21 11 - - W 1006,1 19 0 0,0
18.08.2019 07:00:00 15,3 14,7 - - 18 10 - - W 1005,4 10 6 0,0
18.08.2019 06:00:00 14,8 14,4 - - 9 5 - - WNW 1004,7 10 0 0,0
18.08.2019 05:00:00 14,7 14,4 - - 4 2 - - WNW 1004,4 10 0 0,0
18.08.2019 04:00:00 14,5 14,3 - - 16 9 - - - 1004,2 10 0 0,0
18.08.2019 03:00:00 14,5 14,2 - - 5 3 - - SSE 1004,5 10 0 0,8
18.08.2019 02:00:00 14,8 14,5 - - 16 9 - - SSW 1005,9 9 0 1,8
18.08.2019 01:00:00 15,0 14,8 - - 22 12 48 26 SW 1006,9 6 - 2,0
18.08.2019 00:00:00 15,6 15,2 - - 22 12 - - SW 1007,1 5 0 1,0
17.08.2019 23:00:00 16,1 15,5 - - 11 6 - - WSW 1007,2 7 0 0,6
17.08.2019 22:00:00 16,3 15,4 - - 9 5 - - SW 1007,6 9 0 0,2
17.08.2019 21:00:00 16,4 15,3 - - 16 9 - - WSW 1008,3 9 0 0,0
17.08.2019 20:00:00 16,7 14,7 - - 15 8 - - WSW 1008,2 10 0 0,0
17.08.2019 19:00:00 17,0 14,8 - - 15 8 - - WSW 1008,8 12 0 0,0
17.08.2019 18:00:00 17,1 14,8 - - 21 11 - - WSW 1009,0 10 0 0,0
17.08.2019 17:00:00 17,8 15,2 - - 18 10 - - WSW 1009,0 11 0 0,0
17.08.2019 16:00:00 17,9 15,0 - - 24 13 - - WSW 1009,3 10 0 0,0
17.08.2019 15:00:00 17,4 15,2 - - 26 14 - - W 1009,1 10 0 0,0
17.08.2019 14:00:00 17,7 15,0 - - 28 15 - - WSW 1009,0 10 0 0,0
17.08.2019 13:00:00 17,9 15,3 - - 22 12 - - W 1009,1 10 0 0,0

tt = temperature
td = dewpoint
tt -20cm = temperature -20cm
tt -100cm = temperature -100cm
ff = wind speed
fx = gusts
dd = wind direction
ppp = reduced air pressure
vv = visibility
sd = sunshine duration
rr = precipitation

Next stations